Vorticity
nan nan nan nan nan nan nan nan nan nan nan nan nan nan nan nan nan nan nan nan nan nan nan nan nan nan nan nan nan nan nan nan nan nan nan nan nan nan nan nan nan nan nan nan nan nan nan nan nan
nan 4 2 5 10 7 2 5 6 6 6 3 8 9 6 8 10 9 4 5 9 10 12 6 9 6 5 4 7 6 6 6 5 5 6 5 6 6 4 6 6 6 7 6 4 4 4 3 nan
nan 4 6 4 7 9 3 5 6 7 11 7 6 5 9 12 7 8 7 4 8 9 9 12 5 4 5 8 8 6 6 6 6 6 6 6 6 6 6 5 6 6 6 6 5 4 4 3 nan
nan 7 5 5 5 7 4 2 7 9 10 9 6 6 4 8 7 5 1 4 8 10 7 4 8 17 7 7 6 8 6 4 7 6 6 5 6 5 6 5 5 5 6 6 6 5 4 4 nan
nan 4 5 8 6 4 5 2 3 8 8 10 6 3 3 11 6 3 4 6 10 11 8 3 8 7 4 18 15 7 6 5 6 6 6 6 6 5 5 6 3 5 6 5 6 5 4 5 nan
nan 5 7 9 7 1 4 5 5 8 6 5 7 4 7 7 9 6 6 8 10 12 10 5 12 23 12 -1 9 -3 7 6 6 7 6 6 5 5 4 4 5 7 7 6 6 6 5 5 nan
nan 4 3 8 9 4 6 5 6 4 7 12 9 6 9 8 6 5 6 6 11 15 12 6 12 15 8 5 8 14 11 6 7 7 6 6 6 6 4 6 9 7 6 6 5 5 6 5 nan
nan 6 10 8 9 7 4 1 8 7 7 12 8 6 8 12 7 4 5 6 9 12 13 12 11 8 9 10 5 25 14 6 7 6 6 5 4 4 6 5 5 7 5 6 5 5 6 5 nan
nan 6 6 10 9 8 -1 4 5 7 10 4 1 3 12 8 4 3 5 6 5 8 8 10 14 11 7 6 8 9 10 18 5 3 5 3 5 7 3 3 7 6 6 5 6 6 5 2 nan
nan 1 2 9 10 3 -1 3 7 5 6 9 7 7 6 4 3 4 5 4 6 9 8 6 8 10 11 8 8 8 7 9 6 9 3 2 7 5 4 6 6 2 4 3 4 4 5 3 nan
nan 1 4 6 6 1 4 5 3 3 2 2 9 21 16 5 5 6 6 5 6 8 9 8 5 7 9 9 8 5 10 6 9 8 4 4 4 7 6 4 5 5 2 3 4 2 3 5 nan
nan 6 4 4 4 6 4 3 2 3 2 8 14 15 12 9 6 6 6 7 7 8 10 9 8 8 5 7 8 9 8 7 11 9 7 2 7 8 5 8 8 6 6 6 3 3 7 7 nan
nan 6 8 7 5 4 6 3 8 4 15 16 13 10 9 8 6 8 7 7 7 10 13 11 8 8 6 5 5 8 8 11 12 8 6 6 9 7 6 8 8 7 8 6 6 6 7 7 nan
nan 9 6 7 8 5 7 7 10 13 15 13 12 9 7 6 8 7 5 7 9 11 13 10 8 8 7 7 6 6 8 15 10 7 9 8 8 8 7 8 7 7 8 8 8 7 7 7 nan
nan 8 10 16 12 12 13 16 13 13 9 9 9 7 5 7 9 7 6 9 11 10 12 10 5 7 9 6 10 15 11 12 7 9 9 10 10 8 6 7 8 8 9 8 7 7 6 7 nan
nan 7 9 11 15 15 8 10 16 7 7 9 9 7 7 7 8 9 9 9 9 11 11 8 7 7 7 9 19 21 15 9 9 7 8 9 11 8 5 7 9 9 8 7 7 8 7 8 nan
nan 6 8 -1 10 8 4 5 3 3 5 9 10 8 7 7 7 7 11 9 9 11 10 8 7 6 5 10 19 16 12 8 9 7 9 9 8 7 7 8 8 7 8 9 7 7 8 7 nan
nan 6 2 8 12 9 5 3 -4 4 10 8 10 10 8 8 9 9 8 8 9 10 9 7 7 6 4 6 9 10 6 7 7 11 11 8 6 7 7 8 7 6 8 8 8 8 8 7 nan
nan 10 6 8 4 10 9 6 6 5 9 12 11 10 9 9 8 7 8 8 7 8 10 8 7 4 3 6 7 8 8 5 5 10 13 9 6 6 5 6 5 6 8 9 7 7 7 6 nan
nan 4 6 3 6 5 7 9 6 10 9 11 13 11 11 9 6 6 7 7 7 7 8 9 9 7 4 5 6 9 9 7 7 8 12 9 8 5 7 6 6 5 5 8 7 5 4 7 nan
nan 6 6 5 5 6 15 15 13 11 6 6 7 12 13 9 7 7 7 7 7 8 6 8 9 7 7 5 4 5 6 9 9 7 8 12 12 7 7 6 6 6 5 6 7 8 4 4 nan
nan 8 7 8 5 8 6 11 17 15 8 8 14 13 10 10 8 8 8 8 7 7 8 8 8 8 8 6 7 4 6 8 7 7 6 11 11 9 7 7 6 5 6 8 6 7 6 6 nan
nan 11 15 14 10 8 1 6 10 9 13 11 21 19 10 11 9 8 9 8 9 8 7 8 8 8 9 6 5 5 6 7 9 12 9 5 7 9 9 7 6 5 6 7 7 8 6 6 nan
nan 10 9 15 16 14 13 6 5 9 13 7 5 16 17 12 9 7 9 9 9 8 8 9 8 8 7 7 7 6 4 4 8 7 6 8 8 7 8 7 6 7 7 8 9 8 7 6 nan
nan 4 9 11 9 11 19 12 5 6 8 4 5 16 19 13 10 8 8 7 8 9 7 7 8 7 8 8 7 7 7 5 5 5 5 8 5 7 10 8 6 8 8 7 8 8 9 7 nan
nan 1 -1 5 4 12 8 6 10 3 4 10 12 13 16 14 11 9 7 7 8 9 8 8 8 7 8 7 7 9 7 5 9 8 5 7 8 10 9 9 9 7 6 6 6 6 8 9 nan
nan 12 2 4 10 10 9 6 9 14 10 10 7 11 15 15 12 10 6 7 8 9 10 9 7 8 9 7 7 9 9 6 7 9 6 7 8 7 10 8 7 7 7 6 5 7 8 9 nan
nan 11 14 9 9 9 9 8 12 11 6 7 11 12 17 15 11 10 9 9 8 9 9 9 9 9 8 9 7 9 10 7 5 8 9 6 6 6 6 7 6 6 6 7 7 6 8 9 nan
nan 4 -0 9 9 5 8 11 13 7 3 7 11 16 19 14 11 11 10 9 9 9 9 9 10 9 8 9 9 8 10 10 7 6 7 7 7 7 6 6 6 6 7 7 9 11 11 7 nan
nan nan nan nan nan nan nan nan nan nan nan nan nan nan nan nan nan nan nan nan nan nan nan nan nan nan nan nan nan nan nan nan nan nan nan nan nan nan nan nan nan nan nan nan nan nan nan nan nan
CAPE
0 0 0 0 0 0 0 0 0 0 0 0 0 0 12 17 1 0 214 294 1221 1746 1815 1564 1808 1874 1965 2020 2020 1965 2090 2103 1971 1689 1702 1742 1873 1786 1561 1346 1167 966 716 114 42 57 32 30 18
0 0 0 0 0 0 0 0 0 0 0 0 0 1 37 9 77 259 455 758 410 1392 1861 1786 1682 1689 1577 2001 2089 2103 2241 2150 1863 1848 1878 1855 1842 1706 1440 1159 834 660 426 14 20 51 31 24 18
0 0 0 0 0 0 0 0 0 0 0 0 0 21 23 2 406 406 734 643 789 865 1914 1824 1527 1441 1732 1890 2096 1838 2227 1946 1808 1812 1960 1930 1765 1506 1226 803 499 443 309 11 12 15 23 10 13
0 0 0 0 0 0 0 0 0 0 0 0 0 7 20 58 247 419 462 817 831 1010 1470 1255 664 1326 1551 1886 1865 1479 1573 1749 1738 1768 1832 1760 1598 1397 984 648 446 421 327 15 14 15 12 9 3
0 0 0 0 0 0 0 0 0 0 0 0 0 3 75 131 189 281 487 834 1119 994 1421 1101 258 809 518 747 1038 1418 1683 1641 1653 1671 1571 1568 1493 1245 800 597 560 547 403 12 3 4 2 3 1
0 0 0 0 0 0 0 0 0 0 0 0 6 22 62 319 311 511 861 1011 1076 1231 1291 1140 387 939 568 442 30 563 1435 1490 1445 1409 1424 1458 1263 981 733 613 645 560 273 6 4 2 1 0 0
0 0 0 0 0 0 0 0 0 0 0 0 13 5 11 360 429 1024 1011 1068 670 882 926 920 928 1023 208 8 0 20 1191 1317 1255 1096 1162 1065 857 663 731 572 499 430 99 0 1 2 1 0 0
0 0 0 0 0 0 0 0 0 0 0 38 34 4 0 328 750 998 976 999 755 528 697 738 701 418 452 201 120 71 667 791 898 845 857 701 605 538 305 232 341 212 51 0 0 0 0 0 0
0 0 0 0 0 0 0 0 0 0 0 12 41 58 82 426 739 769 776 967 918 512 379 207 433 325 146 155 308 129 112 381 465 621 526 412 810 459 235 127 218 145 28 0 0 0 0 0 0
0 0 0 0 0 0 0 0 0 0 0 0 0 52 74 548 584 582 676 754 582 720 474 173 196 446 177 216 273 201 143 202 702 878 783 685 636 392 148 163 218 100 0 0 0 0 0 0 0
0 0 0 0 0 0 0 0 0 0 0 2 0 0 143 512 603 607 511 528 342 397 340 177 46 83 49 240 269 324 117 143 231 464 592 550 484 306 55 179 257 93 0 0 0 0 0 0 0
0 0 0 0 0 0 0 0 0 0 0 0 6 20 117 530 592 575 406 235 179 179 233 50 34 32 12 4 66 113 78 116 97 111 137 629 202 100 50 87 102 54 0 0 0 0 4 0 0
0 0 0 0 0 0 0 0 0 0 0 0 17 2 185 565 617 187 75 34 47 54 67 44 7 11 8 1 2 10 110 126 84 84 103 125 184 53 4 54 63 66 48 39 19 21 17 0 0
0 0 0 0 0 0 0 0 0 0 0 10 125 207 626 527 265 9 6 1 12 27 12 6 2 1 4 2 4 3 25 76 75 75 52 62 93 60 3 14 0 34 96 102 41 24 1 0 0
0 0 0 0 0 0 0 0 0 0 0 48 364 464 359 215 72 4 4 9 14 15 5 5 3 0 0 1 7 41 2 70 55 20 20 19 101 21 12 2 0 0 0 13 10 8 0 0 0
0 0 0 0 0 0 0 0 0 0 0 29 84 145 143 120 104 2 6 16 17 7 13 5 2 2 1 1 4 15 80 5 17 5 12 26 54 23 6 13 0 0 0 0 0 0 0 0 0
0 0 0 0 0 0 0 0 0 0 0 4 42 143 188 129 117 1 5 23 13 7 6 6 2 3 2 2 2 1 3 2 11 20 6 59 65 28 5 11 0 0 0 0 0 0 0 0 0
0 0 0 0 0 0 0 0 0 0 0 0 34 128 193 165 125 0 3 16 17 9 11 7 7 3 1 5 1 9 7 14 11 21 30 97 70 44 11 11 8 1 0 0 0 0 0 0 0
0 0 0 0 0 0 0 0 0 0 0 0 15 40 162 199 80 0 2 9 10 7 10 10 10 8 0 0 3 3 10 17 13 19 59 80 68 70 99 41 36 4 27 30 5 0 0 0 0
0 0 0 0 0 0 0 0 0 0 0 0 1 56 160 217 35 0 2 16 9 8 7 9 14 7 8 2 0 5 5 9 4 15 76 112 114 90 147 102 69 85 43 27 7 0 3 6 0
0 0 0 0 0 0 0 0 0 0 0 0 0 0 95 259 126 0 0 6 4 14 12 7 8 9 7 21 2 0 0 1 2 10 38 94 111 115 95 95 89 90 82 75 72 86 134 131 34
0 0 0 0 0 0 0 0 0 0 0 0 0 4 59 208 157 7 0 0 12 22 18 15 7 9 12 2 1 1 1 8 2 1 12 49 102 99 85 87 83 101 98 92 134 145 181 166 171
0 0 0 0 0 0 0 0 0 0 0 0 0 0 41 204 192 62 3 0 2 7 25 25 12 10 8 10 3 0 0 43 14 14 2 9 33 32 38 67 83 93 117 126 172 161 179 157 191
0 0 0 0 0 0 0 0 0 0 0 0 0 0 12 144 195 91 19 0 0 2 6 27 24 13 9 10 7 0 0 0 12 6 21 19 3 10 27 49 99 121 124 127 186 227 216 208 198
0 0 0 0 0 0 0 0 0 0 0 0 0 0 22 108 187 167 33 1 0 3 7 13 13 12 9 11 12 5 4 2 33 42 14 18 30 40 58 86 105 138 211 293 349 316 319 364 344
0 0 0 0 2 0 0 0 0 0 0 0 0 0 1 91 209 273 95 55 0 0 5 5 4 5 9 18 18 29 25 17 22 46 59 36 56 94 80 110 122 160 202 267 229 234 244 255 305
0 0 0 0 0 0 1 1 0 0 0 0 0 0 0 66 213 331 236 101 52 0 0 7 8 9 6 10 16 9 24 21 16 15 37 52 25 46 103 62 64 50 47 50 69 107 169 284 405
0 0 0 0 0 0 0 0 0 0 0 0 0 0 2 131 218 279 383 209 146 33 0 0 0 0 4 15 13 13 14 16 17 15 10 11 11 1 10 16 25 17 9 27 86 188 209 239 322
0 0 0 2 2 1 2 0 0 0 0 0 0 0 6 190 313 287 312 330 216 117 13 0 0 0 0 1 5 9 9 10 10 12 14 4 3 1 0 0 11 21 14 75 148 197 168 92 31
0 0 0 2 0 9 5 1 0 0 0 0 2 0 0 73 257 326 311 317 319 227 74 0 0 0 0 0 1 2 4 6 7 4 6 11 6 7 3 3 1 2 17 59 133 43 0 0 1